RH
81 79 74 72 78 87 92 96 98 92 85 86 87 86 85 81 76 74 71 66 65 72 76 81 91 97 99 101 99 100 100 91 82 78 73 72 78 88 96 98 95 88 85 84 85 86 83 79 78 78 87 95 85 73 80 89 87 86 91 97 100 101 96 87 80 76 73 69 67 65 61 56 50 44 43 40 41 51 65 74 71 53 37 34 32
79 78 80 86 95 99 95 92 89 81 79 85 83 80 79 76 72 72 72 73 79 87 89 92 99 101 100 100 100 100 101 99 95 91 88 88 93 99 101 100 98 93 87 84 83 86 85 82 80 78 83 95 93 76 73 86 95 95 95 98 99 99 99 96 89 83 80 75 72 70 67 64 59 52 46 42 42 47 53 67 77 66 44 35 34
77 80 91 99 98 91 80 73 70 69 75 84 84 79 76 72 73 76 77 81 86 86 85 90 99 101 100 99 100 100 100 99 99 99 99 100 99 100 101 99 98 94 90 87 84 84 82 77 77 77 77 88 95 85 72 76 93 100 97 96 99 98 98 101 98 92 88 83 78 76 73 70 67 63 59 54 52 51 49 54 70 77 63 43 35
81 82 89 92 90 83 72 66 69 75 84 91 86 77 70 63 60 64 71 75 76 76 81 92 100 101 98 96 97 100 101 100 100 100 100 101 100 99 99 99 98 95 93 90 86 84 76 70 73 76 75 82 94 96 82 72 80 95 98 94 97 99 98 100 101 98 95 92 88 84 80 77 74 71 69 65 61 59 58 56 62 75 76 60 43
86 86 85 85 86 82 75 75 84 90 89 84 74 69 72 70 60 55 60 66 71 81 92 99 101 101 98 95 92 95 97 98 99 100 100 101 100 93 89 91 94 91 88 85 84 84 77 69 72 75 75 79 86 94 93 80 72 82 93 95 96 99 100 100 100 100 99 99 97 94 90 87 84 81 77 73 69 64 64 66 68 71 77 75 63
90 91 88 85 82 78 74 75 81 82 76 71 69 72 85 94 88 78 77 82 89 97 101 101 100 100 99 94 90 87 88 91 95 98 100 101 100 92 80 77 80 78 74 73 76 79 75 69 69 73 77 81 84 89 95 91 80 75 81 91 97 99 100 100 100 100 100 100 100 99 98 95 91 88 86 82 79 73 69 71 74 74 76 80 79
93 91 87 81 78 76 76 77 78 80 78 77 77 80 90 98 101 99 98 99 101 100 99 97 96 96 95 90 86 81 79 81 85 91 96 98 100 98 84 72 68 67 64 65 68 72 71 68 70 75 78 82 85 87 91 95 93 81 73 82 95 101 100 100 101 100 100 100 100 100 99 98 97 94 91 90 88 85 79 75 75 75 75 79 82
93 89 84 80 79 79 79 80 80 79 79 79 79 84 90 90 94 103 101 93 89 89 88 88 86 85 84 80 75 72 70 70 74 80 88 92 96 100 95 84 76 72 67 64 66 69 72 74 77 79 77 77 80 84 86 92 98 91 78 77 89 100 100 99 100 100 100 100 100 100 100 100 100 99 98 96 93 89 86 83 81 80 79 80 83
91 88 85 83 83 82 82 82 82 82 83 86 89 94 93 85 84 92 88 73 67 70 71 74 75 73 70 67 64 63 61 61 63 68 74 82 87 93 98 97 93 87 81 76 73 72 74 76 76 73 72 77 85 87 85 88 95 94 83 76 84 96 100 100 100 101 100 101 100 100 101 100 100 100 99 95 90 87 88 88 88 89 88 88 88
91 89 88 88 88 89 90 91 92 93 94 96 98 100 99 93 88 82 74 67 69 73 70 64 63 62 59 57 55 54 54 54 56 59 63 69 76 82 89 96 99 98 94 88 80 73 72 76 76 72 69 75 87 90 86 85 91 92 86 80 82 92 99 100 101 100 99 100 101 100 100 100 100 100 96 89 86 87 89 89 89 92 95 96 94
94 93 92 93 95 97 98 99 99 100 100 100 100 100 100 100 96 88 84 86 91 94 88 74 66 63 60 58 56 54 52 52 52 53 54 58 64 72 79 85 91 96 95 88 78 67 64 65 69 73 73 73 79 88 89 87 90 93 93 89 85 88 95 96 97 101 101 100 101 100 99 98 97 97 94 91 90 90 88 88 90 92 93 93 92
97 97 97 98 99 100 100 100 101 100 100 100 100 100 101 101 100 98 98 100 100 101 100 94 88 84 82 82 80 76 72 67 63 59 55 53 55 62 69 75 79 83 85 81 73 65 61 57 56 61 71 75 75 83 90 89 90 95 98 97 90 86 88 88 88 93 97 98 101 99 96 95 95 96 97 95 94 93 92 92 92 91 89 86 86
99 99 100 100 100 101 100 100 101 100 100 101 101 101 101 100 101 100 100 100 101 101 101 100 100 99 99 99 98 97 93 88 84 79 69 61 57 55 59 66 70 72 73 70 66 62 59 56 52 51 61 74 78 81 87 90 90 93 98 101 92 80 81 87 88 88 91 96 100 97 92 93 94 94 95 97 97 97 96 95 92 91 90 86 84
100 100 100 101 100 100 100 100 100 100 101 102 101 100 100 100 100 100 101 100 100 100 100 100 101 100 100 100 100 101 100 96 94 91 83 79 78 71 60 56 59 63 65 63 62 60 55 53 52 48 52 70 81 80 83 90 93 94 98 102 92 75 73 84 90 93 95 95 96 94 93 95 95 92 93 96 96 96 95 94 93 91 89 87 86
100 100 100 100 101 100 100 101 100 101 102 101 101 100 100 101 100 100 101 100 100 100 100 100 100 100 100 101 100 100 100 100 100 98 94 93 98 94 77 60 53 53 55 56 54 54 53 52 50 47 53 70 79 77 81 89 96 98 99 102 96 79 71 75 80 87 92 92 92 96 98 99 98 96 97 96 93 92 92 92 93 93 91 90 91
100 101 101 100 101 101 100 101 100 100 101 101 100 100 100 101 101 100 100 100 100 101 100 100 100 100 100 100 100 100 100 100 100 100 100 99 100 101 94 83 76 69 63 62 60 58 57 54 51 56 69 81 81 80 87 95 99 100 100 100 99 89 79 78 79 81 86 88 93 99 101 100 100 100 99 98 97 96 94 93 94 95 94 94 95
100 100 101 101 101 101 100 101 101 100 101 100 100 101 100 100 100 100 100 100 100 100 100 100 100 100 100 101 100 99 99 100 101 99 100 101 99 100 100 98 98 93 83 78 76 73 73 71 71 80 90 92 87 88 94 98 99 101 100 100 100 92 84 84 86 84 84 87 93 98 100 100 100 100 100 100 100 100 98 96 94 93 94 95 95
100 100 101 101 102 102 101 101 100 100 101 100 100 101 100 100 100 100 100 100 100 100 100 100 100 100 100 100 99 95 92 95 100 100 100 100 100 100 101 99 101 100 96 93 91 91 93 94 96 99 96 91 88 88 91 96 100 100 98 98 96 86 79 82 88 88 88 89 92 96 100 101 100 100 100 100 100 100 99 98 96 94 93 93 91
100 101 102 102 102 102 101 101 101 100 101 100 101 101 100 101 101 101 101 100 100 101 100 100 101 100 100 100 100 98 92 88 91 94 96 98 98 99 100 99 100 100 100 100 100 100 100 100 100 99 95 90 90 89 90 97 101 97 92 92 88 78 72 75 79 81 83 86 90 92 95 98 100 100 100 100 100 100 99 99 99 96 95 94 92
101 102 103 103 103 101 101 101 100 100 101 100 100 100 100 101 100 100 101 101 101 101 100 99 98 96 95 95 95 94 91 88 87 88 88 90 95 99 99 96 97 100 100 100 100 100 100 100 101 100 96 92 91 92 93 97 99 96 93 90 83 74 69 67 68 71 77 86 94 95 93 94 98 101 100 100 100 99 99 100 99 97 97 98 96
102 103 103 103 102 101 101 101 100 100 101 100 101 100 100 100 100 98 98 99 100 98 96 94 93 90 89 91 91 90 90 90 88 86 85 84 86 94 100 99 98 99 100 100 100 100 99 97 94 95 96 95 92 90 91 94 97 96 91 84 77 74 73 70 68 72 77 85 94 100 99 97 99 100 100 100 101 99 99 100 100 98 99 99 97
103 104 104 102 101 101 101 101 101 100 100 100 100 100 100 100 100 99 100 100 99 96 94 93 91 89 89 91 91 87 88 90 88 84 84 83 82 86 94 98 98 96 96 96 97 98 100 98 92 88 88 92 93 92 91 92 94 96 94 85 79 83 87 84 81 82 84 86 93 99 101 100 99 100 100 100 100 100 100 100 100 99 100 99 98
104 105 104 102 101 102 102 102 101 100 101 100 100 100 100 100 101 100 101 101 97 93 93 93 90 87 84 84 86 87 87 89 90 89 86 83 82 85 89 92 93 94 92 87 84 84 88 91 93 91 88 88 89 91 95 96 91 91 95 95 92 94 97 96 95 95 95 96 97 99 100 100 100 100 100 100 100 100 100 100 100 100 100 100 98
103 105 104 102 101 101 102 103 102 101 100 100 100 100 100 100 101 100 101 101 96 93 93 92 91 90 85 82 87 93 93 93 96 98 93 85 82 84 87 87 88 91 92 85 76 75 76 77 82 88 93 96 95 90 91 95 93 88 89 93 97 99 100 100 100 100 100 100 100 99 100 100 100 100 100 100 100 100 100 100 100 100 100 100 100
103 104 103 102 101 101 101 100 101 102 101 100 101 101 100 101 101 100 101 100 97 94 92 91 93 97 95 92 94 98 99 98 99 100 96 89 85 84 83 82 81 85 89 85 78 77 79 78 78 79 82 92 100 97 91 92 96 96 93 94 97 100 100 100 100 100 101 101 99 99 99 100 100 100 100 100 100 100 100 100 100 100 100 100 100
102 103 103 101 100 101 100 98 99 101 101 101 100 100 100 101 101 100 101 100 97 94 92 92 97 100 99 99 100 100 100 99 100 100 96 92 93 93 90 89 88 88 89 89 89 90 90 89 89 85 80 85 96 101 99 95 95 98 99 99 99 99 99 100 101 100 101 101 99 98 98 100 100 100 100 100 100 100 100 100 100 100 100 100 100
101 102 102 100 101 102 101 99 98 99 100 101 101 100 100 101 101 101 100 100 98 95 93 96 100 100 100 101 100 100 101 100 100 100 98 96 99 100 98 98 98 96 94 94 96 99 98 97 98 96 93 94 97 100 101 99 97 98 99 100 100 99 97 97 99 99 100 101 100 100 99 100 100 100 100 100 100 100 100 100 100 100 100 100 100
99 101 101 100 100 101 102 102 100 98 98 98 100 101 101 100 100 100 100 100 100 99 98 100 101 100 100 101 100 99 101 101 100 100 101 100 100 99 99 100 99 98 98 98 98 99 99 99 100 100 99 100 101 100 100 100 100 100 98 97 98 100 99 98 99 99 100 100 100 100 100 100 100 100 100 100 100 101 100 100 100 100 100 100 100
96 98 100 100 99 100 101 101 102 101 98 95 96 100 101 100 100 99 100 101 100 100 100 100 100 100 99 99 99 99 100 100 101 100 99 96 94 93 94 97 98 99 99 99 99 100 100 99 100 100 99 99 100 100 100 100 100 100 99 96 97 100 100 100 99 100 100 100 100 101 100 99 99 100 101 100 100 100 100 100 100 100 100 100 100
95 97 99 100 100 100 100 100 101 103 101 97 96 97 99 101 101 100 99 100 100 101 101 99 99 100 99 97 98 99 100 100 100 99 95 90 91 93 93 93 95 98 99 100 100 100 100 101 100 99 99 100 100 100 100 101 100 100 100 100 100 100 100 100 100 100 100 99 99 99 99 99 100 100 100 100 100 100 100 100 100 100 100 100 100
97 98 99 100 100 100 100 101 100 101 101 100 99 97 95 96 99 101 102 101 99 98 97 97 99 101 99 97 96 98 99 99 99 99 98 96 97 99 97 94 94 95 97 100 101 100 100 100 100 100 100 100 100 100 100 100 100 100 99 99 101 101 100 100 100 98 94 91 93 98 100 99 100 100 100 100 101 100 100 100 100 100 100 100 101
100 100 100 100 101 100 100 101 100 100 100 100 101 101 98 94 93 94 95 95 97 98 96 94 97 101 100 98 98 99 100 99 97 95 96 96 98 99 96 93 93 95 97 99 100 100 101 100 100 101 100 100 100 100 100 99 100 99 96 95 99 101 100 100 98 94 91 91 94 99 101 99 100 101 100 100 100 100 100 100 100 100 101 101 100
100 101 101 100 100 101 100 100 100 100 100 100 101 102 102 99 96 92 86 82 84 92 97 96 98 100 100 99 97 94 92 91 89 89 91 92 94 95 93 90 90 93 97 100 100 100 101 100 100 100 99 98 99 99 99 99 100 100 98 97 99 100 100 99 96 95 96 98 99 100 100 100 100 100 100 100 100 100 100 100 100 101 100 95 90
101 102 102 101 100 101 100 100 100 100 100 101 101 101 101 101 101 99 95 86 80 83 90 96 99 99 99 101 98 91 85 83 82 86 89 87 87 91 91 88 87 91 97 100 100 100 101 100 100 100 99 99 100 100 100 100 100 101 101 100 99 98 98 98 97 96 97 100 100 100 100 100 100 100 100 100 100 100 101 101 100 96 91 84 77
101 101 101 101 102 102 101 100 100 101 100 100 101 102 102 101 101 101 102 100 94 89 88 92 99 101 100 101 100 95 89 85 83 85 86 83 85 91 91 86 86 90 96 100 100 101 101 100 99 100 100 100 100 100 100 100 100 100 100 100 99 96 95 97 98 97 98 100 100 100 100 100 100 101 100 99 99 100 100 99 93 85 78 72 66
101 101 100 101 102 103 102 101 100 100 101 100 100 101 101 101 102 102 102 101 100 98 93 92 97 100 99 99 101 98 93 87 84 85 86 85 86 90 89 87 89 93 97 100 100 100 101 101 100 100 100 100 100 100 100 101 101 101 100 99 99 97 96 97 98 98 99 100 100 100 100 100 100 100 100 101 100 98 94 87 79 72 65 59 53
103 102 101 101 102 101 102 102 100 100 101 101 101 101 101 101 101 101 100 100 100 100 97 93 93 95 95 96 99 100 98 92 87 87 90 89 87 86 88 93 98 100 100 100 101 100 101 101 100 100 100 100 100 101 100 100 101 101 101 100 98 97 97 98 99 99 99 100 100 100 100 100 100 101 101 99 93 85 78 70 63 58 53 48 43
102 102 102 102 102 102 102 102 101 101 101 101 101 101 101 102 101 99 99 101 101 100 99 97 97 98 97 97 99 101 100 92 84 84 89 90 88 89 94 99 101 101 101 100 100 101 101 101 101 101 100 99 99 100 101 101 101 101 100 99 98 98 99 100 100 100 100 100 100 100 100 101 100 97 92 84 73 64 59 55 50 45 42 40 38
101 101 102 101 100 101 103 103 101 100 100 100 100 100 100 101 101 100 101 101 100 100 100 100 100 100 100 99 100 101 96 84 75 80 91 96 95 96 100 100 100 101 101 100 101 101 101 100 100 98 94 92 90 89 90 94 98 100 100 98 97 97 98 99 99 99 100 101 100 100 99 94 86 77 68 60 53 47 44 43 41 39 37 38 39
101 101 101 101 100 100 101 102 101 100 100 99 99 100 101 101 101 101 102 101 100 100 101 100 100 100 100 99 100 101 96 84 78 85 97 101 99 99 100 100 100 100 100 100 100 101 101 101 98 94 93 94 93 86 77 74 80 90 96 98 97 97 97 97 98 97 98 97 93 87 80 70 59 53 49 45 42 40 39 38 38 39 41 42 43
102 102 101 101 102 100 99 100 100 100 101 100 99 99 101 102 102 102 102 101 101 101 101 100 100 100 101 100 100 101 97 87 80 84 94 100 101 100 100 100 100 99 99 100 101 100 100 101 99 97 98 100 101 96 81 63 58 70 84 92 95 95 94 93 90 86 81 76 68 60 54 48 43 42 42 42 42 42 42 41 42 43 43 44 43
103 102 101 101 101 101 100 101 101 100 100 99 99 99 100 101 101 101 101 102 101 101 101 101 100 100 100 100 100 101 99 94 88 86 90 97 102 101 99 101 101 99 99 101 101 100 101 101 100 101 101 100 102 102 87 61 47 52 64 72 76 77 74 70 66 61 55 50 46 42 40 40 40 41 41 41 42 43 43 43 44 43 43 43 43
103 102 102 102 102 102 103 102 101 100 100 100 100 100 101 101 100 101 101 101 101 101 100 100 100 100 100 100 100 100 100 99 98 94 92 96 101 101 100 101 101 100 100 101 100 100 101 100 99 101 101 99 101 101 84 57 43 45 50 51 53 53 49 46 43 41 38 37 37 38 39 40 41 43 43 43 43 43 43 43 43 42 43 45 46
102 101 101 101 101 102 103 103 101 101 101 102 101 101 100 100 100 101 101 101 101 101 101 101 100 100 100 100 100 100 100 100 101 100 98 99 101 100 100 101 101 101 101 101 100 100 102 100 100 101 100 99 102 98 75 49 39 43 45 43 42 40 38 37 36 36 36 37 38 40 41 42 42 43 43 42 42 42 42 43 44 46 47 50 52
103 102 101 100 100 100 101 102 103 102 101 101 101 100 99 100 100 100 101 101 100 100 101 102 102 101 101 101 100 100 100 100 100 101 101 100 100 100 100 101 101 101 101 101 100 100 100 100 100 102 100 99 102 96 69 42 35 41 43 42 41 39 37 37 37 36 37 39 39 39 41 41 41 42 42 42 42 43 44 46 49 51 53 55 57
102 102 102 101 101 100 100 102 103 103 103 102 101 99 99 100 99 100 101 100 96 93 95 100 102 102 101 101 101 100 101 101 100 100 101 100 100 100 100 100 100 100 100 101 101 102 101 101 101 101 100 102 103 92 63 38 34 40 41 41 43 41 38 38 38 38 38 39 39 39 40 40 40 42 42 43 44 46 48 51 53 55 57 60 62
101 101 101 102 102 101 100 101 102 102 102 102 100 99 100 100 100 101 101 96 89 83 82 89 96 100 101 101 100 100 100 100 100 100 100 100 100 101 101 100 99 96 92 90 91 94 97 99 100 100 100 99 93 76 50 34 34 39 39 39 41 41 40 40 40 39 39 40 39 40 41 41 42 44 45 46 49 51 53 57 59 61 63 65 67
101 101 100 100 101 100 100 101 101 100 101 101 101 101 101 100 100 101 99 92 84 78 74 76 82 88 94 99 101 101 101 101 100 101 101 100 100 101 100 100 101 98 91 81 72 69 71 75 78 80 79 74 64 50 37 31 34 36 37 38 38 38 39 40 40 40 41 42 42 43 44 45 47 49 50 52 55 58 60 63 65 66 69 70 69
100 101 100 100 100 100 100 100 100 100 100 101 101 101 101 100 101 100 95 88 82 78 75 72 71 73 76 82 88 94 98 99 98 98 100 101 100 100 101 102 100 94 83 69 55 46 44 45 46 47 45 42 37 32 29 30 34 37 38 40 40 40 41 42 42 42 43 43 44 46 47 48 50 53 55 58 61 62 65 67 67 67 68 67 67
99 100 101 101 101 101 101 100 100 100 100 100 101 100 100 100 101 98 89 81 77 75 74 71 68 66 65 65 68 73 78 80 79 82 88 95 99 98 96 91 82 70 59 49 41 36 34 33 31 31 30 29 28 28 30 34 38 41 43 44 44 43 43 42 42 42 44 45 47 49 51 54 57 59 61 63 64 63 63 63 62 61 62 62 64
96 97 98 99 100 100 99 99 99 100 100 100 100 101 100 101 100 95 85 76 72 71 72 70 67 64 62 60 58 58 59 60 61 63 66 70 72 69 63 57 50 44 40 37 33 31 31 31 31 32 32 32 33 35 38 40 42 43 43 43 43 42 43 44 45 47 49 51 53 55 57 58 59 59 58 57 56 55 55 56 56 58 60 61 64
Wind_Speed
36 38 39 38 33 29 26 24 24 26 27 26 27 29 29 28 30 30 31 32 30 27 24 22 20 19 20 20 20 21 21 22 23 24 25 26 26 25 23 24 27 29 28 27 25 25 25 24 22 20 19 19 20 22 24 24 24 26 27 29 34 40 43 42 41 41 38 34 33 33 31 31 31 33 33 32 32 33 37 40 37 37 42 44 42
37 36 32 27 24 24 24 24 26 29 29 27 28 29 28 27 28 28 29 27 24 22 21 19 18 19 19 17 15 14 16 18 20 21 22 23 23 23 22 23 25 27 28 28 27 26 26 24 22 20 19 19 19 20 23 22 22 23 25 27 30 35 41 43 44 43 40 36 35 35 34 34 33 34 34 33 31 30 32 36 37 37 41 42 41
32 29 25 22 24 29 33 33 32 31 29 27 27 28 28 28 28 27 27 26 23 21 21 19 19 21 21 19 17 13 12 14 16 16 18 19 21 22 22 23 25 26 26 27 27 26 25 24 23 22 20 20 19 19 21 22 21 21 23 25 28 31 36 41 44 44 42 39 39 38 37 37 37 37 37 36 35 33 33 36 37 39 41 42 40
27 27 26 25 28 32 34 32 29 28 27 27 28 30 32 32 31 29 28 27 25 22 20 18 18 20 22 22 21 17 14 13 14 15 15 18 20 21 21 21 23 24 24 24 24 25 25 26 25 22 21 21 20 18 19 21 21 21 21 23 27 30 34 38 41 43 42 39 39 40 39 38 37 36 37 36 36 36 36 38 38 38 41 42 40
27 27 27 27 27 28 28 26 24 23 26 29 31 31 31 29 26 26 28 28 24 20 19 20 20 22 23 23 22 21 18 16 15 15 16 17 20 20 19 20 22 23 22 22 22 23 25 26 25 23 21 21 20 18 17 19 21 21 20 22 25 29 34 38 39 40 41 39 38 39 38 36 36 35 36 36 37 37 38 40 39 37 39 41 41
27 26 26 26 26 25 25 25 25 26 27 29 29 27 26 24 21 19 21 21 19 18 20 23 23 23 24 24 24 23 21 19 18 16 17 17 18 18 19 21 23 23 22 21 21 21 23 25 25 24 24 23 21 19 17 17 19 20 20 21 25 29 32 35 36 37 40 39 38 38 38 37 36 36 35 36 36 37 39 41 41 37 37 39 40
27 26 26 25 26 25 25 25 26 26 26 25 24 24 24 23 21 17 16 18 20 21 23 25 25 24 25 25 25 24 24 23 21 19 19 18 17 17 18 20 22 23 22 21 21 20 22 24 25 25 26 24 21 20 19 17 17 19 21 21 23 28 32 32 32 34 37 38 37 37 36 36 35 35 34 33 34 36 39 42 44 43 41 40 39
26 26 25 26 26 25 25 25 25 25 24 24 24 24 24 24 22 19 19 21 23 24 26 26 26 27 27 27 27 26 27 26 25 23 22 21 19 18 18 19 21 21 21 21 21 21 22 23 23 24 25 24 22 21 21 19 17 18 20 21 22 26 30 31 31 31 33 35 36 36 35 33 33 32 32 32 33 34 37 40 43 44 45 44 42
25 25 26 26 26 26 26 25 24 24 24 24 23 24 25 24 22 21 23 25 25 26 26 27 28 28 29 29 29 29 30 30 30 28 26 25 23 20 19 19 20 20 20 20 20 21 22 22 23 24 25 25 24 22 21 20 19 18 19 21 23 24 26 28 28 29 30 32 33 34 34 33 33 33 32 33 33 33 34 35 37 39 41 42 41
26 26 27 26 26 26 26 25 25 25 24 24 24 24 25 23 22 23 25 26 26 26 25 26 28 29 30 31 32 32 33 33 34 34 32 30 28 25 23 21 21 21 21 21 21 21 22 22 23 24 26 26 24 23 22 21 21 20 18 19 23 24 23 24 24 25 27 29 31 32 33 33 33 34 34 34 33 32 32 32 33 35 36 36 37
26 27 26 26 27 27 27 26 26 26 25 25 25 25 25 24 23 22 23 23 22 20 20 22 24 26 27 29 30 31 32 34 35 37 38 37 34 30 28 25 24 23 23 23 23 23 23 23 22 23 25 26 25 25 24 23 23 22 19 18 21 25 26 24 23 23 23 25 27 30 31 32 33 33 33 32 32 32 31 30 31 32 33 33 34
27 27 27 27 28 27 27 27 27 28 27 26 26 25 24 23 21 20 19 18 17 15 14 16 18 20 22 24 25 27 28 29 31 34 37 39 38 36 33 30 28 27 26 26 26 26 25 24 24 24 25 26 27 27 25 24 24 23 22 20 20 23 27 28 26 25 24 24 25 27 28 28 29 30 30 31 32 31 31 30 30 31 31 32 32
28 28 28 28 28 28 28 29 29 29 29 28 26 25 23 22 21 20 19 17 16 14 12 12 12 13 15 17 19 21 22 21 22 24 28 31 33 36 36 35 32 31 30 30 30 30 30 28 27 26 25 26 28 27 26 25 24 24 24 23 22 22 26 29 29 28 27 25 25 27 27 26 26 26 26 26 28 29 30 31 31 32 32 31 30
28 29 29 29 30 29 29 31 32 31 30 28 26 24 24 23 21 21 20 18 16 14 12 10 10 9 10 11 12 14 14 13 13 15 18 20 23 28 33 35 36 35 34 33 33 33 33 33 31 28 27 27 27 27 26 25 25 24 24 25 25 23 24 29 30 30 29 28 27 28 27 25 24 23 21 22 24 25 27 28 29 30 30 30 29
29 29 30 31 32 31 32 33 33 32 30 27 25 25 24 23 22 21 19 17 16 13 11 10 9 9 9 10 10 9 7 7 8 10 11 12 15 19 24 30 34 36 36 37 37 37 36 36 34 31 29 28 28 28 28 27 26 25 25 27 27 24 23 27 30 31 31 31 30 28 26 25 23 21 20 21 21 21 21 22 22 24 27 29 30
30 30 32 34 34 34 34 34 33 31 29 27 26 25 24 23 21 20 17 16 14 12 11 11 11 11 11 12 13 11 8 6 5 5 5 8 12 16 18 23 28 33 35 35 36 37 37 35 33 29 28 28 29 29 27 26 26 26 26 27 26 23 22 24 28 31 32 32 31 29 27 26 24 23 22 22 21 19 19 21 23 24 27 29 30
31 33 36 37 36 35 34 33 32 30 28 27 26 24 22 21 19 18 17 15 14 13 11 10 11 12 12 12 11 10 8 7 5 4 5 7 10 13 15 17 20 25 29 29 30 30 30 29 28 27 26 26 28 28 25 24 25 26 26 26 24 23 21 21 24 27 29 30 30 30 29 28 27 26 24 23 22 21 21 24 26 27 28 29 30
35 37 37 37 36 34 33 31 30 30 28 27 26 24 23 22 20 18 18 16 15 13 11 9 9 9 9 8 8 8 6 6 5 5 6 7 8 9 10 10 11 14 18 20 22 22 21 21 22 24 26 26 27 27 25 24 25 26 26 26 25 24 22 20 21 22 23 24 25 25 26 27 28 28 27 25 24 24 25 26 26 27 28 29 30
38 38 37 36 34 32 31 29 29 29 28 26 25 24 23 22 20 18 17 16 16 14 13 12 10 9 9 9 10 11 10 8 7 7 8 9 10 9 9 9 9 10 12 13 15 16 17 18 20 22 25 26 26 26 25 25 26 26 26 26 27 26 23 21 21 21 20 20 20 19 19 22 25 28 29 28 27 27 27 25 25 26 27 28 30
38 37 36 34 32 30 29 28 28 27 26 24 23 22 21 20 18 17 16 15 14 13 13 13 12 11 11 12 12 13 14 13 12 12 13 13 14 13 12 12 13 13 13 14 15 17 18 19 20 21 23 24 26 27 26 25 26 27 27 27 27 26 23 21 22 22 22 22 20 17 17 18 22 26 28 29 29 29 27 26 26 27 26 28 30
38 36 34 31 30 28 26 26 26 24 23 22 21 20 20 19 18 16 16 15 13 10 10 10 11 11 11 11 12 11 11 13 14 15 16 16 16 14 13 14 15 16 17 17 17 18 19 20 20 20 20 21 23 25 25 25 26 28 28 27 26 24 22 22 21 22 22 22 21 20 19 19 22 26 27 28 29 29 28 27 27 26 25 26 27
37 34 32 30 28 26 24 24 23 22 22 21 20 19 18 16 15 14 14 14 12 10 10 12 13 14 13 13 12 10 10 12 13 13 15 17 19 17 16 16 17 18 19 20 20 20 20 21 21 21 21 21 21 22 23 24 26 29 30 28 25 23 23 23 22 21 21 20 20 21 22 21 22 26 28 28 28 28 28 28 26 24 23 24 25
34 32 31 29 27 25 23 22 22 21 21 20 19 19 17 15 14 13 14 14 12 11 12 14 17 18 17 16 14 13 12 12 12 13 14 15 19 20 20 19 19 19 20 22 22 22 22 23 23 23 23 23 22 22 22 23 25 27 29 29 26 24 24 24 23 22 21 19 19 19 20 20 21 24 28 29 29 28 27 27 26 25 25 25 25
33 31 30 28 26 24 22 21 21 21 20 20 20 19 17 16 15 14 14 15 14 13 15 18 21 22 21 21 19 16 15 14 11 11 14 14 14 18 21 21 21 20 21 24 25 25 25 25 25 25 25 25 25 24 24 25 25 26 27 28 28 26 25 25 25 24 23 22 19 18 19 19 21 23 26 29 29 27 27 26 26 26 26 26 25
32 30 29 27 26 24 22 21 21 21 21 21 21 21 19 18 17 16 15 15 15 16 17 20 24 25 24 25 23 19 18 16 12 10 12 13 11 11 15 18 19 19 21 23 24 24 24 24 23 24 25 26 27 27 27 27 26 26 26 27 28 27 27 27 27 27 27 24 21 19 20 21 23 24 25 27 28 27 27 26 26 27 26 26 26
31 30 28 26 25 24 23 21 20 21 21 21 20 20 20 19 17 16 16 16 16 17 20 23 26 27 28 28 24 19 18 15 11 9 9 9 8 7 7 9 11 14 16 18 19 19 18 16 15 17 21 23 24 25 27 29 28 27 27 28 29 29 29 28 27 28 28 26 24 24 23 22 22 23 25 27 28 27 27 26 26 27 26 26 26
31 29 28 26 25 25 25 23 21 20 21 22 21 19 17 17 16 16 17 17 17 19 22 26 28 29 31 30 24 19 16 13 9 7 6 6 7 5 3 4 4 5 7 9 11 11 11 11 11 12 15 18 19 19 22 25 27 27 27 28 28 28 28 28 27 27 28 28 29 28 25 22 22 24 26 28 28 27 26 25 25 26 26 26 26
29 28 27 27 26 25 26 26 24 22 20 21 22 21 20 18 16 15 16 18 19 21 25 28 29 28 29 28 24 19 15 13 11 10 8 9 9 8 6 6 4 3 3 4 5 6 9 11 12 12 13 15 17 17 17 20 23 25 26 26 26 26 27 26 26 27 28 29 30 29 25 21 23 26 28 29 28 26 25 24 24 25 26 26 26
28 27 27 26 26 26 26 26 25 24 22 20 19 18 18 19 17 15 13 14 18 21 23 25 24 23 23 23 21 17 15 14 13 12 10 10 10 10 9 8 6 4 3 2 4 6 8 10 10 11 12 14 16 17 17 18 20 22 23 24 25 26 25 24 25 26 26 26 26 25 22 21 24 28 29 29 27 26 25 25 24 24 25 25 25
28 28 27 26 27 27 26 25 25 25 24 23 19 15 12 11 13 14 14 13 13 15 16 18 19 18 18 17 16 14 13 12 11 10 9 9 10 10 10 10 8 6 3 1 3 5 7 8 9 11 12 13 14 15 16 17 18 19 19 19 20 20 21 22 22 23 22 21 20 20 19 21 25 28 29 28 27 26 25 24 23 23 23 24 24
29 28 27 27 27 26 26 25 25 24 24 24 23 20 15 10 7 8 11 11 12 13 14 14 16 16 15 13 12 11 11 10 11 11 11 10 10 9 9 8 7 5 5 4 1 4 6 7 9 11 12 13 13 14 14 15 16 17 17 16 16 17 19 20 19 18 17 17 17 17 19 22 25 28 28 27 26 26 26 24 23 23 23 22 22
27 27 26 26 25 25 25 25 24 24 24 24 23 23 21 17 12 9 9 9 11 13 14 14 15 16 16 14 12 12 12 12 12 13 12 12 11 9 8 8 6 6 6 5 2 2 4 6 8 10 10 10 10 11 11 12 13 15 15 15 17 17 17 15 14 13 14 15 17 18 20 23 25 26 26 26 26 26 26 25 24 23 22 20 19
25 25 26 26 25 24 24 24 24 24 25 25 23 22 22 22 19 16 15 14 12 11 13 13 13 15 17 16 14 13 13 12 12 12 12 12 12 10 9 8 7 7 8 6 4 3 3 4 5 6 5 5 7 9 9 10 12 14 15 16 17 16 14 11 11 11 12 13 15 17 20 23 24 25 26 26 26 26 25 24 23 22 20 20 19
22 22 23 24 24 24 23 24 24 24 23 23 22 21 21 21 20 20 20 19 16 14 14 13 12 12 13 13 12 12 13 13 12 11 10 11 12 11 10 8 8 9 10 8 5 4 4 3 3 3 4 5 8 9 9 11 13 15 15 14 13 12 12 11 10 11 12 13 15 17 19 22 24 26 27 26 25 23 22 21 21 20 19 19 20
22 21 20 21 22 22 22 22 22 22 22 21 20 20 20 19 19 18 19 20 19 18 17 15 12 12 12 12 11 12 13 14 13 11 10 11 12 11 9 8 9 11 12 10 7 6 5 5 5 5 5 6 8 8 9 11 12 12 11 11 10 11 11 11 11 12 12 14 16 18 20 23 25 25 24 23 22 21 20 19 19 19 19 19 19
23 22 20 20 20 20 20 21 20 20 20 19 19 20 20 20 19 18 18 17 17 17 17 16 13 11 11 11 11 11 12 13 13 11 10 10 10 8 8 9 11 12 12 11 9 7 7 7 7 7 6 6 7 8 9 10 10 9 8 8 9 10 12 12 13 13 13 14 17 19 22 24 24 22 20 20 19 18 18 18 18 18 17 17 16
23 22 21 20 20 19 19 19 18 18 18 18 19 20 21 21 20 19 18 17 16 16 16 16 14 12 11 11 11 11 12 12 11 10 9 9 7 8 10 12 13 12 13 12 11 10 9 9 10 9 8 7 8 9 8 8 8 8 8 8 8 10 12 13 13 13 14 15 17 20 21 20 19 17 17 17 17 17 17 18 18 17 16 16 15
22 20 19 19 19 19 19 19 18 17 18 19 20 21 21 21 19 19 18 18 17 16 15 15 16 16 15 14 13 12 10 9 10 11 10 8 8 9 11 13 13 13 14 14 13 12 12 13 13 12 11 10 9 8 8 8 8 8 7 8 10 12 13 14 14 14 14 16 17 18 18 17 16 16 15 16 18 19 19 18 17 16 16 15 14
22 20 18 17 17 18 19 19 19 19 19 20 21 21 21 20 19 20 20 19 18 17 16 15 16 17 17 15 14 12 9 9 12 14 12 9 9 11 11 12 13 14 14 14 14 14 14 14 14 14 13 12 10 9 8 7 7 7 8 9 12 14 14 15 15 15 15 16 17 17 16 16 16 17 16 16 17 18 17 16 15 14 13 13 12
25 22 19 19 18 18 18 18 18 19 19 20 21 21 21 20 20 21 21 20 19 17 16 16 16 16 17 16 14 11 10 11 14 14 12 10 9 9 10 11 12 13 13 13 13 13 13 13 14 14 14 13 12 11 9 8 8 8 9 10 12 14 14 15 15 16 16 17 17 17 17 18 18 18 17 16 15 14 14 14 13 12 12 11 11
25 23 21 20 19 19 18 18 19 19 18 19 20 21 21 20 20 21 20 20 20 18 17 16 15 14 14 13 12 10 10 12 13 14 12 11 8 8 9 11 12 12 12 12 12 12 12 12 12 12 12 11 12 11 10 8 8 10 11 12 13 14 14 15 16 16 17 18 18 18 19 19 18 18 17 16 14 13 12 12 11 11 11 10 10
25 23 22 20 19 19 19 19 18 18 17 17 19 21 21 20 20 20 20 20 20 19 18 17 15 13 11 10 9 8 9 11 13 13 12 11 9 8 8 10 11 11 11 11 11 11 11 11 11 10 9 9 9 10 9 8 9 10 12 13 14 15 16 17 18 18 18 19 18 18 18 18 17 16 15 14 13 12 11 10 9 9 9 10 10
24 23 22 21 19 19 19 18 18 17 17 17 18 20 20 20 20 20 20 20 20 19 19 18 17 15 13 10 9 8 9 10 12 12 12 11 10 8 8 9 10 11 11 11 11 11 10 10 10 10 9 7 6 7 8 8 10 12 13 15 16 16 17 18 18 18 18 18 17 17 16 15 14 13 11 10 9 9 8 8 9 9 10 11 12
24 23 22 21 20 19 19 18 18 18 17 17 17 19 19 19 20 20 21 21 20 19 18 17 17 16 14 12 11 11 11 12 12 11 11 10 9 9 9 9 9 9 9 10 10 11 11 11 10 10 9 8 6 5 6 8 12 14 14 15 15 15 15 15 15 16 16 15 14 14 13 12 11 10 9 8 8 8 8 9 10 11 11 12 13
24 23 22 21 20 20 19 19 18 17 16 16 17 18 18 19 20 21 21 20 20 19 18 17 16 15 14 14 13 13 14 14 13 11 10 9 10 11 11 10 9 9 8 8 9 9 10 10 9 9 9 8 6 4 5 9 13 15 15 15 14 13 12 12 12 12 12 11 10 10 9 9 8 8 8 8 8 9 9 10 11 12 13 14 14
25 24 23 23 21 21 20 19 18 17 17 17 17 18 18 19 20 21 21 20 19 19 18 17 16 15 14 14 14 14 14 14 14 13 12 11 11 12 12 11 10 9 8 8 7 7 8 8 8 8 7 6 4 4 5 9 14 16 16 16 14 13 12 11 11 10 10 9 8 8 7 7 7 7 8 9 10 11 11 12 13 14 15 15 16
26 25 25 24 23 21 21 20 19 18 18 17 18 18 19 19 20 21 21 20 20 20 19 18 17 16 15 14 13 13 13 14 14 15 15 14 13 13 13 12 10 9 8 8 7 6 6 6 6 6 5 4 4 4 6 9 13 16 16 16 16 15 13 12 11 10 9 8 8 7 7 8 8 9 10 11 12 13 13 14 15 15 16 16 17
27 27 27 26 25 24 23 22 22 21 20 19 19 19 19 20 21 21 21 21 21 21 20 19 18 17 16 15 14 13 12 12 12 13 13 13 13 12 11 11 10 9 8 8 7 6 5 5 5 4 4 4 4 6 8 10 13 14 14 14 13 13 12 11 9 8 7 7 7 8 9 10 10 11 12 12 13 14 14 14 15 15 15 16 17
27 28 29 29 28 27 26 25 24 23 22 21 20 20 20 21 22 21 21 21 21 22 22 21 20 18 17 16 14 13 12 11 10 10 10 9 9 9 9 9 9 8 8 8 7 7 6 6 5 5 5 5 6 8 10 11 12 12 10 9 8 8 7 7 6 6 7 7 8 9 10 10 11 11 12 12 13 14 14 14 15 15 16 17 17
26 27 28 29 29 29 27 26 25 24 23 22 21 21 21 22 22 22 22 22 22 22 22 22 21 20 18 17 15 14 12 11 11 10 9 9 9 9 9 8 8 8 7 7 7 7 7 7 7 8 8 8 9 10 11 11 11 9 8 7 6 5 5 5 6 6 7 7 8 8 9 9 10 10 11 12 12 12 13 14 15 16 17 18 18
24 25 26 26 27 27 26 25 25 24 23 22 22 22 22 22 22 22 22 22 22 22 22 21 21 20 19 18 16 15 13 12 12 11 11 10 10 10 10 9 9 8 8 8 7 8 8 8 8 9 9 9 9 9 9 8 8 7 6 5 4 4 4 5 5 6 6 6 7 7 8 8 9 10 10 11 12 13 14 15 16 17 17 19 19
Wind_Direction
309 307 307 308 309 310 310 311 312 311 308 300 293 294 295 295 294 292 292 292 289 287 282 280 285 289 288 290 291 285 274 261 248 245 247 248 252 252 248 247 245 241 241 242 241 241 244 248 252 255 256 256 261 260 250 240 238 240 242 245 245 241 236 233 235 241 244 246 245 244 242 238 235 236 237 238 238 235 234 238 242 239 233 230 227
311 312 314 313 313 314 312 312 312 312 312 305 301 300 297 295 295 292 290 287 282 279 273 275 287 290 283 282 286 281 270 265 261 258 257 255 256 253 245 241 241 240 241 242 241 239 242 248 251 252 255 256 257 260 255 244 238 240 241 243 245 244 240 235 234 236 239 241 243 242 240 238 236 235 236 238 239 238 238 240 241 237 232 231 229
315 316 316 314 312 309 307 307 306 305 305 300 298 298 295 293 293 292 290 287 284 279 275 281 290 286 276 271 272 269 257 251 251 254 257 255 253 251 242 238 238 238 241 243 243 240 239 243 248 250 253 255 254 256 255 248 242 243 245 244 245 246 244 239 235 236 237 238 241 242 242 241 240 239 239 241 243 242 241 242 242 239 235 232 230
319 317 314 312 312 310 310 311 307 302 297 294 295 299 297 294 290 286 288 289 286 282 282 285 285 280 275 270 268 267 259 248 239 239 243 244 245 245 240 235 235 236 238 242 243 241 239 241 245 247 250 253 254 253 254 251 246 244 246 246 245 246 245 241 237 237 237 236 238 241 242 242 241 240 239 239 241 240 239 240 242 240 236 233 230
319 317 315 314 313 315 317 318 314 309 304 299 298 300 303 304 295 285 285 290 289 286 283 278 273 274 275 272 270 270 266 261 253 244 238 237 239 238 233 229 229 232 233 236 238 238 238 241 243 245 249 253 254 252 252 253 249 246 246 247 246 244 243 241 238 238 236 234 235 238 238 238 238 239 238 237 237 236 235 237 239 238 234 231 228
320 319 318 317 317 317 318 316 314 314 314 309 306 308 314 317 313 299 290 288 285 279 276 273 273 275 274 273 273 273 271 268 263 253 242 237 236 234 231 227 227 229 230 230 232 232 236 241 243 243 246 249 251 251 252 253 250 246 244 245 246 244 240 239 238 237 235 232 233 235 235 236 236 236 237 236 236 236 235 235 237 236 233 230 229
323 321 320 319 319 318 317 315 314 314 314 313 311 312 313 314 316 311 295 285 280 279 278 276 275 275 274 273 272 273 273 270 266 259 250 245 240 233 230 228 228 230 231 230 230 230 234 240 241 242 244 247 250 252 253 252 248 245 241 241 246 245 241 238 236 236 234 230 229 231 233 234 234 235 236 236 235 235 234 235 236 236 235 235 234
324 323 322 322 320 319 318 316 315 314 313 312 310 308 308 308 309 307 298 291 287 286 284 281 277 275 273 273 272 273 274 271 266 261 254 251 248 239 231 230 230 231 231 232 234 233 234 236 238 239 241 243 246 251 254 251 246 244 240 235 239 243 242 239 236 234 232 227 226 229 231 230 230 231 231 230 230 230 230 232 236 238 238 239 239
326 324 323 323 322 321 321 318 317 316 314 312 309 308 309 308 306 302 296 293 292 290 286 282 279 276 272 271 272 273 273 271 267 263 258 255 253 247 237 232 231 231 231 232 234 236 237 237 238 240 241 241 241 244 251 251 246 246 243 235 232 236 240 240 237 234 231 226 223 226 228 228 229 229 229 229 229 230 230 232 235 238 239 240 241
327 326 325 324 324 323 323 321 319 317 315 313 310 309 312 313 308 300 294 292 293 291 285 279 277 275 273 272 272 271 270 267 264 262 260 257 255 253 247 239 235 234 233 233 235 238 241 242 241 240 242 243 240 238 244 248 247 248 249 240 232 231 235 237 236 235 232 227 224 224 225 227 230 232 233 235 234 232 232 232 233 235 235 235 237
328 327 325 325 325 324 323 322 321 319 317 315 312 310 311 312 309 304 299 297 296 291 284 279 276 274 273 271 270 268 265 261 259 258 257 256 255 253 251 245 241 238 237 237 238 241 244 247 248 245 242 242 241 239 240 243 245 246 249 247 237 232 232 234 235 234 234 231 229 229 230 231 234 236 237 238 236 234 233 232 231 232 233 233 234
328 327 326 326 325 324 324 323 322 321 319 318 318 316 316 317 317 315 313 311 309 302 292 283 276 273 272 271 270 268 264 260 256 253 252 252 251 251 250 249 246 243 241 241 243 245 248 252 254 253 248 243 242 241 239 239 241 242 246 251 248 237 232 232 234 235 235 234 233 233 234 234 236 238 239 239 238 236 234 233 233 235 236 237 238
329 328 327 326 326 325 325 325 325 325 326 327 328 328 329 329 329 328 327 326 324 318 308 296 287 279 275 274 273 271 269 264 258 252 248 245 244 245 247 248 247 246 244 245 247 250 252 255 257 258 255 246 240 239 238 238 240 242 244 251 256 247 235 231 231 234 236 236 237 238 239 238 237 239 241 242 242 239 237 236 235 236 238 240 241
331 329 328 328 328 327 327 328 329 331 335 337 337 338 338 337 337 337 335 334 331 329 324 316 308 300 295 291 285 280 277 271 260 253 245 240 240 241 243 246 248 248 248 249 251 254 256 257 259 260 257 249 239 237 237 237 239 241 242 248 255 253 239 232 230 230 233 235 236 240 243 243 244 246 247 246 246 245 244 243 241 240 241 243 242
332 330 330 332 333 332 333 334 336 338 341 343 343 343 343 342 344 342 339 338 338 337 336 335 335 338 336 332 327 321 310 292 272 256 240 237 244 244 242 245 247 248 249 250 250 252 254 256 258 258 253 246 239 237 238 237 237 240 240 245 254 254 241 234 232 229 229 232 234 238 243 247 249 251 250 250 251 252 254 256 254 250 246 243 241
333 332 335 339 340 339 340 341 341 343 346 347 347 347 347 347 347 346 344 346 348 347 348 351 354 1 8 4 358 0 13 10 332 290 264 251 247 248 250 251 249 249 249 248 248 249 249 251 252 248 245 243 238 235 236 236 237 240 241 244 252 254 243 234 233 232 230 231 232 234 238 243 246 247 248 249 250 251 252 251 249 246 242 239 238
337 338 341 344 344 344 345 345 344 346 349 349 349 350 351 352 353 353 353 357 2 2 2 6 9 14 22 22 11 5 14 19 11 354 333 300 273 267 266 258 251 250 250 248 246 244 243 243 241 238 238 239 235 232 235 238 238 239 241 243 248 251 245 234 231 233 234 234 235 235 237 240 242 244 246 247 247 246 243 242 241 240 239 237 237
342 343 345 346 347 347 348 348 347 349 350 350 351 354 356 358 0 1 0 3 7 8 9 16 21 16 13 11 1 349 345 350 347 334 318 300 291 292 283 263 251 250 248 245 242 238 235 235 234 234 235 234 233 233 234 237 237 236 235 238 242 244 240 230 226 227 230 233 234 236 238 239 241 243 243 242 244 243 242 242 242 242 240 239 239
345 346 346 347 349 350 351 351 351 351 351 352 354 356 357 360 2 4 5 5 5 6 5 5 6 359 349 343 337 327 318 315 311 296 278 263 261 270 272 262 256 254 249 243 239 236 235 235 235 234 234 233 234 234 232 231 234 234 233 236 240 239 231 225 224 224 222 223 224 227 232 233 236 242 242 239 238 240 243 246 246 244 244 243 239
347 348 348 349 351 352 354 354 354 354 354 355 358 360 359 0 2 4 6 3 3 7 5 357 351 349 346 339 330 320 310 303 295 285 276 265 258 258 259 253 246 243 243 242 239 236 236 237 238 238 237 236 235 235 234 232 233 234 233 235 237 234 227 225 227 226 223 223 224 228 233 229 227 234 240 239 235 235 239 244 246 245 246 244 240
348 349 349 352 354 355 358 358 356 358 358 357 360 2 1 1 360 358 357 355 358 6 6 360 356 356 357 349 339 328 314 302 291 282 276 269 262 259 256 253 247 241 239 240 241 240 239 238 238 237 237 237 237 237 236 233 232 234 235 235 234 232 229 230 230 228 227 228 227 230 236 234 226 227 233 237 236 234 236 241 244 245 245 244 242
348 350 352 354 356 358 1 1 360 1 1 1 1 1 2 2 358 354 350 348 355 4 6 6 5 4 7 3 351 338 324 311 300 292 280 266 259 256 252 251 250 247 245 243 241 242 243 243 243 241 239 237 236 235 233 231 231 234 237 239 237 234 235 237 237 236 236 236 234 231 232 232 226 223 227 232 234 234 235 238 240 239 239 241 242
350 352 354 356 358 0 3 4 3 3 4 4 3 1 3 2 357 354 354 354 0 9 9 9 8 5 5 3 354 345 336 324 314 311 302 278 258 251 249 249 251 253 254 253 250 249 248 246 247 246 244 242 240 236 232 230 230 231 235 238 239 237 237 239 241 240 238 236 235 230 227 228 226 224 225 228 231 232 232 233 234 233 232 234 236
354 355 357 358 0 3 5 6 6 7 6 6 4 3 3 3 359 358 360 2 7 11 10 10 7 4 0 356 352 350 345 336 322 315 316 306 274 252 248 250 252 254 258 259 259 258 256 254 252 249 246 244 242 240 235 231 232 232 232 234 236 236 235 235 237 238 236 234 232 226 224 229 231 229 227 227 229 230 230 229 229 229 228 229 230
355 358 360 1 2 4 6 8 9 10 10 9 7 6 3 2 1 0 2 7 9 8 9 9 5 2 358 353 351 351 349 342 328 310 312 317 306 275 259 257 258 259 260 262 263 261 260 260 257 253 248 242 239 239 235 230 232 233 232 232 233 233 231 231 232 233 234 235 233 228 228 232 233 233 231 229 228 227 226 226 225 226 226 226 226
357 0 2 3 5 6 7 10 12 11 12 13 12 10 5 1 359 0 6 11 10 7 7 5 1 357 354 353 352 353 351 345 335 322 317 323 327 312 286 276 273 267 264 263 262 260 259 257 251 249 246 239 236 237 235 230 229 231 232 232 231 230 229 229 230 230 233 235 235 233 232 234 235 234 231 228 226 224 223 224 224 224 224 225 224
358 1 3 5 7 8 9 11 12 12 12 13 15 15 11 5 4 6 8 8 8 8 7 2 356 352 352 354 354 354 355 355 354 350 345 353 1 1 354 351 332 304 284 271 258 249 249 249 246 243 237 228 227 233 231 227 227 228 228 227 225 227 232 233 232 232 233 234 234 232 229 230 232 231 227 224 223 221 221 223 223 221 222 223 223
359 2 5 7 8 9 10 10 10 12 14 14 14 14 10 8 11 14 11 6 4 3 359 355 352 351 353 355 355 356 7 20 22 19 20 22 25 25 18 9 6 4 348 312 268 248 245 244 242 239 232 224 223 226 223 219 218 220 222 220 219 224 232 233 230 229 230 231 230 226 223 226 228 226 223 220 219 218 218 219 220 220 220 219 219
1 4 6 8 8 9 11 10 11 13 14 16 21 21 14 9 11 17 16 10 5 360 352 350 352 351 351 356 358 4 19 28 25 23 27 26 21 19 20 22 22 13 349 296 258 245 239 232 227 226 225 222 222 223 221 218 216 217 220 222 221 222 225 225 222 222 224 225 224 220 220 224 224 220 216 214 213 213 214 214 215 216 215 213 213
1 4 7 9 9 9 10 12 14 15 15 15 20 30 36 25 16 16 16 10 5 360 353 353 356 354 351 357 6 13 20 25 27 29 29 23 19 22 29 35 34 27 22 342 253 234 222 215 211 210 209 209 211 213 213 212 211 209 209 210 212 211 212 213 215 215 215 216 218 218 219 220 217 213 211 209 207 206 205 206 208 209 209 207 207
0 3 5 8 10 9 9 11 13 16 19 18 17 22 33 41 38 25 14 3 357 356 355 359 6 6 3 5 14 22 28 35 41 40 34 29 26 25 28 32 37 45 49 42 320 228 214 202 193 189 188 191 194 196 199 201 202 198 194 193 196 200 203 204 205 206 208 209 210 212 215 215 213 209 206 204 202 200 198 197 199 201 205 208 211
0 2 4 6 10 11 10 11 14 16 18 21 20 20 22 26 36 43 34 23 12 2 360 9 25 32 32 29 31 39 43 40 33 28 25 24 21 21 25 31 44 57 51 38 31 202 197 187 178 175 178 186 190 193 198 201 198 194 190 187 188 193 196 197 198 202 206 205 202 205 210 211 208 204 202 201 200 197 195 194 196 200 205 210 213
3 3 4 5 8 11 11 12 15 16 18 19 20 20 19 17 17 19 24 33 38 27 15 19 35 47 49 48 47 48 46 38 25 17 15 16 18 24 29 31 46 67 63 51 60 109 149 167 166 162 169 182 186 187 188 189 189 189 187 185 185 187 187 190 193 196 199 200 201 205 208 206 204 201 197 196 196 195 195 197 201 205 207 205 201
5 6 6 6 8 11 12 13 14 17 20 20 18 19 19 16 10 5 5 11 20 28 28 27 33 41 45 47 48 43 36 32 27 20 15 14 19 27 34 40 56 72 72 67 76 96 107 115 121 125 137 153 164 171 176 179 183 184 182 181 183 181 177 180 184 185 190 196 200 203 205 204 201 197 192 190 192 195 200 204 206 205 201 196 191
8 8 9 10 11 13 14 15 16 17 19 19 18 17 15 12 9 5 2 1 4 8 13 20 28 34 33 34 38 38 33 30 26 20 16 18 21 25 36 54 68 74 72 70 77 88 86 78 80 94 117 141 157 169 174 173 173 174 172 174 176 175 173 175 178 181 189 196 197 198 199 196 193 192 192 193 197 200 203 203 201 196 191 189 189
9 9 10 11 14 16 16 15 16 18 18 18 19 17 13 9 6 6 7 6 3 1 4 11 23 37 43 38 33 33 33 29 24 20 21 25 28 34 50 63 70 74 75 74 76 82 83 80 81 92 111 134 149 155 157 155 155 157 159 163 170 174 173 170 169 173 181 189 191 191 190 188 187 189 194 198 199 199 196 191 187 185 185 186 186
10 9 10 11 13 16 18 16 15 16 18 19 20 17 13 10 8 9 11 10 7 3 2 7 16 31 46 44 32 26 26 25 25 29 33 35 41 55 65 68 69 72 76 79 79 81 85 86 89 95 104 115 124 131 136 140 146 150 152 155 163 167 164 159 158 163 170 177 182 183 183 183 185 189 192 192 188 183 181 179 178 179 181 183 185
12 11 11 11 12 14 16 16 13 12 15 20 21 18 14 11 11 13 13 13 12 8 6 9 16 24 33 37 32 24 19 22 32 37 37 41 51 62 70 74 72 71 73 75 77 81 87 91 93 95 99 104 111 120 131 140 148 153 154 155 156 156 153 150 151 155 161 168 174 177 178 179 180 181 182 181 177 173 172 174 178 180 181 184 188
10 12 12 13 14 15 15 14 13 12 13 16 19 19 16 13 13 14 14 15 16 14 12 16 21 23 26 30 30 25 20 26 36 38 38 44 55 64 74 81 81 79 77 75 77 83 90 95 98 100 101 101 101 108 120 135 147 153 155 157 157 156 153 150 150 153 158 163 168 170 171 172 171 169 169 171 172 172 171 173 178 182 185 188 194
6 9 12 14 15 15 14 12 11 12 13 15 19 20 17 14 15 14 14 16 18 18 18 19 21 22 22 21 22 24 27 34 39 40 42 48 58 71 82 88 90 91 88 84 84 89 95 103 109 109 103 96 92 94 103 118 135 144 148 153 157 157 156 154 154 155 157 160 163 163 163 164 164 162 163 166 169 172 173 175 179 184 190 197 205
5 7 11 14 14 13 12 11 10 11 13 17 22 23 18 16 17 17 16 18 21 21 20 20 21 22 22 19 19 26 35 41 42 39 37 43 57 78 91 93 95 98 98 96 95 96 102 112 120 119 110 96 84 79 85 103 126 139 144 149 154 156 155 154 153 153 153 155 157 158 159 161 162 162 163 164 167 171 175 180 187 193 200 211 220
7 7 10 13 14 13 12 12 11 11 14 20 28 28 22 20 22 23 22 24 26 26 26 25 24 25 29 29 28 31 37 42 41 34 30 36 53 76 95 101 102 104 106 106 105 106 110 117 125 127 122 106 85 72 73 93 121 136 141 144 146 148 148 147 148 149 151 153 156 158 159 161 162 164 166 168 171 177 183 190 200 210 220 230 237
9 9 11 14 16 16 15 13 12 13 18 26 34 35 31 30 31 31 30 30 29 29 30 32 31 33 37 38 35 31 29 31 31 26 22 30 49 71 91 104 108 108 109 111 114 117 121 126 131 134 133 124 101 79 77 97 121 132 136 138 140 142 144 146 148 150 152 154 156 158 160 161 163 167 172 176 181 191 201 211 223 232 239 244 249
12 12 13 14 17 19 19 17 16 18 24 33 40 42 41 40 39 37 35 33 31 31 32 34 36 39 40 38 35 32 28 25 24 21 20 30 51 71 84 92 97 101 106 113 119 123 126 131 135 136 135 133 122 99 98 117 130 134 136 137 139 142 145 146 148 150 152 154 156 158 161 165 170 176 185 194 205 217 225 233 241 247 251 255 260
16 16 15 16 18 21 22 22 22 24 30 39 47 50 50 46 42 38 34 32 32 33 34 35 38 40 40 38 36 34 33 30 27 24 27 40 60 74 79 82 85 88 96 107 118 125 129 134 138 139 139 140 136 119 121 135 139 140 141 141 140 141 143 144 147 150 151 155 160 164 170 178 186 197 208 219 230 239 245 251 256 259 262 266 269
22 21 20 20 20 23 26 27 28 31 37 44 51 55 53 47 40 36 33 30 31 33 34 36 38 39 39 40 39 38 38 39 39 41 48 58 68 74 76 76 77 79 84 93 105 118 128 135 141 143 145 148 142 126 135 148 149 147 146 144 143 145 147 149 152 155 157 163 171 178 188 200 211 223 234 242 248 253 257 261 262 264 266 268 268
27 28 27 26 26 29 31 34 36 39 44 49 54 54 50 42 37 35 34 32 33 35 35 36 37 37 37 38 40 41 44 47 52 58 63 66 68 71 72 72 72 74 77 82 89 101 113 125 137 143 146 151 144 134 143 154 155 153 153 153 154 156 158 160 164 167 171 179 188 198 210 223 232 239 245 250 253 256 259 261 262 264 266 267 269
32 34 35 34 34 35 38 41 43 46 50 52 53 51 45 38 35 35 34 34 35 36 37 37 37 36 35 35 37 41 45 51 58 65 68 68 68 69 69 69 68 69 72 78 84 91 100 112 128 137 142 146 144 139 145 154 158 160 162 163 165 166 167 170 176 182 190 201 213 223 230 235 239 244 248 251 253 256 259 261 263 266 269 272 275
37 39 40 41 41 41 42 44 47 50 53 53 52 48 42 37 35 36 36 37 37 37 37 37 36 35 34 33 34 37 43 50 58 65 69 71 71 71 69 68 67 65 66 72 77 83 90 98 107 116 123 132 136 138 143 150 156 159 161 161 163 166 170 178 189 202 213 223 230 234 239 243 247 250 253 255 258 261 264 267 271 274 277 280 284
37 40 42 44 45 45 46 47 49 50 52 51 49 45 40 37 36 36 37 38 38 38 37 37 36 35 34 33 33 36 41 45 52 60 65 70 73 75 74 72 70 68 67 66 68 75 83 89 96 103 110 119 126 133 139 145 149 152 153 153 158 168 183 201 214 222 230 236 240 243 248 252 253 256 259 262 266 271 274 278 280 283 285 287 289
33 36 39 42 45 46 46 46 47 47 47 46 45 42 40 38 37 37 37 37 37 37 37 37 36 36 36 36 36 40 45 49 53 59 65 69 72 74 75 75 74 73 73 72 72 76 84 90 95 101 107 114 120 127 134 140 145 150 154 161 175 193 209 221 230 235 239 245 248 251 254 257 260 264 269 273 277 281 283 285 287 288 289 289 289